Wetbulb
59.99 55.20 53.73 57.14 57.53 56.89 56.14 54.85 53.77 57.60 59.88 58.48 57.51 57.94 57.47 60.03 60.71 60.33 60.02 59.84 60.15 60.45 62.51 63.19 63.37 64.38 64.86 64.62 60.97 59.24 60.67 62.37 64.58 62.91 61.12 60.13 58.71 59.87 60.74 62.23 61.24 61.17 61.16 60.90
54.82 52.81 58.17 57.94 57.86 56.94 56.60 54.49 53.32 57.31 59.36 57.90 57.93 57.11 57.76 59.32 59.40 59.72 59.66 60.11 60.65 60.50 59.86 61.39 63.13 64.51 65.13 63.88 63.06 63.27 60.88 65.27 65.26 63.49 62.97 61.42 60.71 60.35 60.78 60.78 61.50 61.87 61.37 60.71
52.70 54.48 58.02 56.61 56.79 56.01 55.30 53.80 55.23 53.83 58.01 58.61 56.95 55.22 55.39 58.46 58.94 59.55 59.98 60.81 60.47 59.33 60.17 60.78 62.08 63.95 64.13 63.40 64.06 61.34 64.44 65.80 65.69 65.03 62.49 62.57 61.30 61.01 60.89 59.62 59.65 60.60 61.44 60.93
54.16 57.34 56.16 56.10 55.59 57.08 53.16 57.91 56.15 54.88 53.63 48.27 54.38 47.75 54.62 55.78 56.41 56.83 57.33 58.23 59.78 59.94 60.49 60.61 60.99 62.66 63.81 64.58 65.65 64.99 66.08 66.07 65.48 65.27 62.68 60.89 58.80 57.60 58.01 59.34 59.95 62.39 62.03 61.20
53.18 55.31 55.22 54.41 56.68 58.16 54.91 58.46 56.69 55.35 53.08 51.72 53.81 50.53 52.90 55.85 52.57 53.91 56.41 57.66 58.41 59.80 60.07 59.96 61.16 61.95 63.25 63.71 65.03 65.80 66.24 66.00 65.38 64.55 63.38 60.55 60.18 58.64 60.03 59.53 60.76 63.27 62.29 61.29
55.27 59.94 57.39 56.97 58.64 58.33 59.02 56.99 56.37 55.94 52.77 47.82 51.47 49.79 49.85 50.72 52.17 53.18 55.09 56.53 58.20 59.23 60.19 60.01 62.51 63.27 62.37 61.84 63.25 63.45 61.84 64.61 65.15 64.11 63.05 61.74 60.78 60.09 58.59 59.39 59.36 59.66 58.72 60.17
54.34 56.43 58.34 59.06 57.09 59.04 57.89 54.97 48.13 46.17 45.64 46.36 53.17 50.16 51.37 53.89 55.29 53.71 54.42 55.39 56.04 58.18 58.31 58.88 59.66 60.47 61.16 61.75 62.63 59.62 61.23 62.34 63.50 62.78 61.79 60.75 61.11 61.64 60.75 60.49 58.47 59.15 58.10 58.80
51.01 49.05 56.94 58.10 56.17 54.82 55.27 53.68 47.44 41.04 43.33 45.17 52.85 47.97 49.66 55.95 56.35 56.01 56.28 56.04 56.83 56.74 57.21 57.95 58.75 58.63 59.50 60.87 61.75 61.83 62.04 57.88 61.99 62.02 61.21 61.12 61.35 59.47 59.32 60.12 59.00 57.99 59.03 59.41
52.30 51.53 57.13 56.76 57.32 56.18 52.46 50.57 55.22 49.28 48.30 45.70 48.67 49.31 53.16 54.69 54.22 54.24 54.83 55.27 55.31 56.51 57.14 57.35 58.39 58.40 59.38 60.27 60.44 60.50 60.62 61.46 61.74 61.26 61.65 61.34 60.74 61.39 59.89 60.77 60.81 59.08 60.40 58.95
56.38 51.83 56.55 56.80 56.50 56.37 54.65 54.79 47.45 49.28 43.15 41.81 46.97 48.34 45.92 50.30 51.12 52.72 52.73 53.84 54.68 55.44 55.73 55.93 56.11 56.40 57.76 57.93 58.25 58.33 60.47 59.04 60.34 61.32 58.80 57.38 58.64 58.43 60.00 60.48 60.09 60.62 60.44 60.07
57.11 54.12 53.19 55.02 53.31 51.72 51.19 51.14 52.42 51.61 48.86 43.27 41.57 45.42 53.27 52.18 53.13 52.97 53.31 54.25 55.75 56.24 56.04 56.04 55.32 55.69 56.02 56.55 56.63 57.40 56.95 58.23 57.12 58.35 60.11 59.75 58.99 57.97 59.00 59.05 59.50 60.36 60.76 60.13
56.61 54.09 48.93 50.04 54.55 54.51 52.71 51.61 52.07 47.14 45.69 48.79 46.54 45.61 54.37 54.11 54.54 54.85 54.09 52.51 54.61 55.30 53.64 52.72 53.33 54.17 54.99 55.20 55.79 55.83 56.49 56.47 57.18 57.60 56.80 58.93 59.37 58.17 57.57 59.53 59.18 59.07 59.04 60.10
58.19 53.17 48.15 49.49 53.08 53.97 51.57 51.62 51.89 51.84 51.25 46.11 44.41 46.24 54.98 54.65 53.00 52.90 52.78 52.46 54.11 52.37 52.44 53.23 53.61 53.92 54.39 55.08 55.77 55.57 55.91 56.01 56.04 56.20 56.84 57.46 59.26 58.93 58.11 57.27 58.56 57.94 59.18 59.20
59.51 54.15 50.78 46.88 49.82 52.49 48.81 49.62 50.56 50.21 46.63 47.47 47.19 48.44 51.48 51.40 51.18 51.13 51.79 52.71 51.28 51.98 52.80 53.13 53.35 53.62 54.11 55.03 55.11 55.13 55.52 56.26 56.22 56.47 57.07 56.35 58.07 58.53 57.18 55.88 56.79 58.93 59.21 59.11
57.21 51.91 51.77 51.00 50.53 50.48 49.45 48.92 49.78 49.17 49.40 46.04 48.23 47.99 51.03 50.87 51.58 52.27 52.27 50.78 50.89 51.42 52.19 52.72 52.92 53.25 53.64 53.90 54.50 54.89 55.17 55.46 55.88 55.86 56.69 55.69 56.25 58.50 57.28 56.08 56.56 57.47 59.45 58.78
56.27 52.86 52.44 49.31 50.22 50.24 48.39 49.32 49.66 49.53 49.76 49.48 49.30 48.20 53.79 54.03 53.35 51.88 50.16 50.68 50.48 51.19 51.87 52.62 53.41 53.45 53.63 53.99 54.15 54.49 54.19 55.43 54.52 54.77 55.73 56.16 55.31 56.72 56.25 55.14 56.90 58.25 58.24 59.29
54.40 54.06 50.88 48.15 50.30 49.48 47.04 50.54 49.83 50.44 51.13 50.23 46.87 50.95 53.07 51.40 51.00 49.63 50.03 50.38 50.51 51.28 52.21 52.90 53.34 53.41 53.86 53.55 54.68 54.41 54.58 54.04 54.82 54.60 54.78 56.40 56.19 54.99 54.85 55.60 56.76 57.59 57.07 59.45
54.39 53.56 52.87 49.00 49.67 41.82 52.01 55.17 53.44 51.61 51.72 52.20 51.38 51.61 51.60 50.24 49.81 50.17 51.64 51.52 51.62 52.38 53.17 53.85 53.14 53.81 55.23 55.35 54.04 54.47 54.61 54.85 54.41 54.05 54.00 55.27 56.05 55.32 55.60 55.72 56.56 58.20 60.17 59.19
58.98 55.30 50.20 47.31 46.82 49.78 51.99 52.91 51.93 49.60 49.39 53.52 51.77 51.40 51.06 49.79 50.58 51.31 52.67 53.33 53.40 54.14 54.63 54.42 54.71 54.58 55.20 54.24 55.21 55.07 54.09 54.08 54.28 52.83 53.64 53.53 55.53 55.05 54.93 54.35 55.27 58.11 59.53 59.55
58.13 58.19 52.76 49.49 44.53 42.39 52.29 54.51 56.13 53.96 45.71 54.79 52.76 50.34 48.55 49.08 45.62 49.04 53.33 54.34 54.42 55.02 54.85 54.62 54.57 54.53 54.45 53.90 54.91 53.69 53.41 53.88 53.06 53.06 53.68 53.72 55.44 55.88 54.10 54.53 55.29 56.52 58.60 57.99
53.06 52.64 49.19 48.37 46.82 50.13 54.91 54.90 54.50 44.29 47.52 53.28 51.46 50.07 49.71 48.39 50.40 52.94 54.43 54.29 54.67 54.09 53.75 54.15 53.81 52.84 53.45 53.41 52.51 51.06 51.88 50.38 51.67 52.74 52.42 54.12 55.18 55.93 56.32 56.76 56.85 56.73 56.10 57.65
51.80 50.18 49.01 49.53 46.94 43.79 55.13 53.05 48.06 52.69 53.58 52.09 50.83 51.29 50.56 51.73 52.51 53.48 53.79 53.08 52.63 52.44 52.90 52.92 52.10 52.19 53.08 51.61 50.14 49.93 49.10 50.48 52.14 52.21 52.33 52.23 54.57 54.88 54.86 56.43 57.20 56.20 55.71 55.87
51.78 55.71 52.84 52.60 51.47 56.15 56.31 55.02 55.58 53.07 50.92 51.48 51.97 52.39 52.29 52.35 52.69 52.99 51.99 51.41 52.25 52.29 51.93 52.17 51.70 51.67 51.67 50.73 50.45 49.02 50.08 50.40 51.12 51.20 51.80 52.00 52.64 54.34 54.79 55.26 56.26 56.31 54.33 53.08
56.91 57.39 53.83 54.08 54.60 53.88 53.95 54.35 53.83 53.58 52.72 53.13 53.41 52.85 53.31 52.29 52.38 51.16 50.92 51.65 51.93 51.07 51.02 52.03 51.56 50.44 48.39 50.03 50.15 49.54 49.20 50.70 50.02 49.58 50.24 51.25 52.06 51.14 52.98 54.02 55.93 54.88 53.67 52.76
56.70 56.90 53.81 53.64 55.06 53.81 53.70 54.01 53.91 53.10 53.27 52.96 53.71 53.57 52.57 52.48 50.84 50.75 51.01 51.51 50.42 50.86 51.92 51.83 50.53 48.92 48.43 50.27 48.79 49.49 49.94 49.98 49.72 49.93 50.84 50.17 49.04 50.50 50.93 53.48 53.96 55.33 55.56 50.48
58.96 56.06 53.14 51.93 56.02 54.02 54.34 55.34 54.39 52.15 52.63 53.15 52.36 52.52 52.99 51.21 50.43 51.05 51.51 51.10 50.64 50.85 51.43 51.04 50.53 48.99 49.02 48.61 47.46 47.91 49.62 50.12 49.39 48.41 48.81 48.15 47.75 48.28 49.92 50.34 52.40 46.83 42.97 44.60
MSLP
1005.05 1004.78 1005.98 1006.28 1005.31 1005.70 1005.58 1005.51 1005.53 1007.02 1008.84 1009.44 1009.95 1012.05 1014.23 1015.04 1015.45 1015.64 1016.11 1016.64 1017.03 1017.44 1017.94 1018.81 1019.36 1019.35 1019.82 1020.56 1021.48 1021.49 1021.57 1021.61 1021.15 1020.69 1020.38 1020.01 1019.74 1019.63 1019.36 1019.60 1019.98 1020.26 1020.00 1019.70
1004.69 1004.09 1004.49 1005.01 1005.46 1005.56 1005.21 1005.03 1006.42 1006.84 1008.46 1009.36 1009.77 1011.44 1013.79 1014.57 1014.91 1015.25 1015.58 1015.92 1016.47 1016.83 1017.30 1017.80 1018.47 1019.01 1019.59 1020.56 1020.87 1021.02 1021.42 1020.86 1020.73 1020.30 1020.22 1020.48 1020.24 1019.81 1019.51 1019.87 1020.13 1020.16 1019.71 1019.66
1004.29 1003.89 1004.73 1005.08 1004.94 1005.14 1004.80 1006.22 1005.65 1006.57 1007.81 1008.95 1009.49 1010.20 1012.75 1013.91 1014.48 1014.61 1014.94 1015.27 1016.00 1016.26 1016.18 1016.95 1017.48 1017.75 1018.88 1019.53 1019.85 1020.53 1020.37 1020.24 1020.40 1020.24 1020.06 1019.89 1019.61 1019.39 1020.16 1020.00 1020.09 1020.04 1019.54 1019.45
1004.19 1003.99 1004.87 1004.84 1004.56 1005.85 1005.18 1005.99 1006.25 1006.43 1006.96 1008.17 1010.85 1009.72 1011.58 1013.26 1013.72 1014.21 1014.63 1015.04 1015.10 1015.42 1015.66 1015.98 1016.34 1016.84 1017.59 1017.70 1018.06 1018.86 1019.30 1019.67 1019.92 1019.88 1019.77 1019.69 1019.87 1019.71 1019.76 1019.66 1019.67 1019.74 1019.41 1019.60
1004.27 1004.48 1004.64 1004.86 1005.26 1005.80 1005.81 1006.48 1006.55 1006.63 1006.70 1007.50 1008.12 1010.01 1011.50 1012.76 1013.75 1014.57 1014.82 1014.75 1014.91 1015.64 1015.80 1016.11 1016.29 1017.43 1016.27 1016.65 1016.57 1017.72 1017.91 1017.92 1018.56 1019.20 1019.56 1019.47 1019.18 1019.03 1019.26 1019.43 1019.58 1019.13 1019.13 1019.34
1004.71 1005.45 1005.80 1005.84 1006.36 1006.54 1006.77 1006.57 1006.03 1006.19 1006.85 1006.97 1008.68 1010.34 1011.87 1012.97 1013.98 1014.68 1015.25 1015.41 1015.40 1015.44 1015.78 1016.38 1016.58 1017.02 1017.56 1019.05 1018.25 1018.22 1017.47 1015.82 1017.83 1018.37 1018.89 1019.36 1019.42 1019.39 1019.32 1019.53 1019.24 1019.07 1018.76 1018.92
1004.90 1005.29 1006.33 1007.00 1006.56 1006.66 1006.81 1006.09 1005.12 1004.89 1006.29 1006.79 1008.62 1009.44 1011.54 1013.02 1014.02 1015.22 1015.43 1015.64 1016.04 1015.79 1016.00 1016.23 1016.54 1016.82 1017.09 1017.28 1017.81 1018.19 1017.82 1017.58 1017.02 1017.44 1018.35 1018.92 1019.05 1019.19 1019.42 1019.06 1018.62 1018.70 1018.50 1018.35
1004.28 1005.86 1006.60 1006.86 1006.98 1006.88 1006.58 1006.43 1006.65 1006.03 1005.99 1006.50 1008.03 1009.51 1012.14 1013.36 1014.67 1015.60 1015.83 1015.81 1015.93 1016.22 1016.40 1016.53 1016.78 1017.01 1016.63 1016.54 1016.73 1017.06 1017.53 1017.79 1016.94 1016.95 1018.00 1018.38 1018.60 1018.59 1018.29 1018.56 1018.37 1018.43 1018.43 1018.24
1004.87 1005.65 1007.17 1007.59 1007.52 1007.77 1006.60 1006.68 1007.04 1007.47 1007.37 1007.15 1009.28 1011.90 1012.75 1013.72 1014.19 1015.41 1015.67 1015.98 1016.33 1016.46 1016.83 1017.37 1017.56 1017.72 1017.77 1017.52 1017.31 1017.39 1017.31 1017.22 1017.07 1017.17 1017.55 1017.21 1018.07 1018.21 1018.17 1018.26 1018.35 1018.15 1018.25 1017.79
1005.88 1006.29 1006.73 1007.48 1008.16 1007.61 1007.79 1007.86 1007.75 1007.03 1007.00 1006.98 1008.27 1009.99 1012.53 1013.75 1014.36 1015.26 1015.81 1016.08 1016.65 1017.10 1017.59 1017.92 1017.97 1018.01 1018.07 1017.96 1017.68 1017.73 1017.64 1017.98 1018.10 1017.09 1017.44 1018.02 1017.87 1018.32 1018.01 1017.63 1018.14 1018.11 1017.95 1017.82
1007.03 1007.28 1007.09 1007.60 1007.47 1007.79 1007.73 1007.35 1008.06 1008.63 1008.59 1008.33 1008.93 1011.46 1013.35 1014.22 1014.90 1015.36 1015.96 1016.99 1017.16 1017.48 1017.38 1017.35 1017.09 1017.19 1017.40 1017.63 1017.52 1017.65 1017.65 1017.43 1017.55 1017.73 1017.12 1017.35 1017.98 1018.24 1017.96 1017.91 1018.18 1017.28 1017.49 1017.71
1008.58 1008.33 1007.72 1007.16 1008.60 1009.09 1009.08 1009.17 1009.33 1009.07 1008.95 1008.89 1010.04 1012.23 1014.34 1014.95 1015.56 1016.42 1017.05 1017.75 1017.67 1017.59 1017.41 1017.50 1017.66 1017.56 1017.68 1017.84 1017.82 1017.79 1017.81 1017.47 1017.01 1017.06 1017.46 1017.66 1017.50 1017.92 1017.72 1017.56 1017.45 1017.41 1016.92 1016.83
1009.25 1008.48 1008.29 1007.63 1008.99 1009.65 1009.33 1009.76 1010.17 1010.27 1010.46 1009.85 1010.23 1012.37 1014.30 1015.45 1016.74 1017.54 1017.76 1017.91 1017.32 1017.63 1017.64 1017.79 1017.69 1017.54 1017.63 1017.64 1017.62 1017.70 1017.70 1017.46 1017.34 1017.83 1017.66 1017.62 1017.38 1017.49 1017.55 1017.56 1017.43 1017.13 1016.93 1016.46
1010.31 1009.86 1009.49 1008.76 1008.92 1009.38 1009.63 1010.32 1010.55 1010.75 1010.52 1010.27 1010.84 1012.44 1014.31 1016.10 1016.86 1017.52 1017.92 1017.54 1017.42 1017.51 1017.62 1017.70 1017.81 1017.82 1017.81 1017.72 1017.88 1017.81 1017.66 1017.48 1017.22 1017.16 1017.85 1017.65 1017.32 1017.00 1017.29 1017.33 1017.27 1016.76 1016.33 1015.76
1010.56 1010.23 1010.15 1010.05 1010.30 1010.27 1010.38 1010.65 1010.89 1010.95 1011.28 1011.68 1011.89 1012.89 1014.41 1015.94 1016.62 1016.78 1017.32 1017.50 1017.48 1017.38 1017.59 1017.68 1017.69 1017.91 1017.98 1018.13 1018.22 1017.98 1017.91 1017.86 1017.79 1016.90 1016.85 1017.48 1017.22 1016.65 1016.81 1016.90 1016.92 1016.29 1015.72 1015.40
1011.14 1010.72 1010.67 1010.56 1010.93 1010.86 1010.81 1011.25 1011.66 1011.88 1012.12 1012.38 1012.51 1013.21 1015.03 1015.95 1016.41 1016.81 1017.32 1017.46 1017.38 1017.48 1017.64 1017.68 1017.55 1017.72 1017.82 1018.03 1018.13 1018.07 1018.05 1017.74 1017.56 1017.40 1016.52 1016.85 1016.92 1016.44 1016.47 1016.70 1016.32 1015.76 1015.27 1014.93
1011.08 1010.84 1011.03 1009.92 1010.97 1011.15 1010.79 1010.60 1011.36 1011.89 1012.49 1012.91 1013.32 1014.42 1015.31 1015.60 1016.39 1017.00 1017.22 1017.34 1017.52 1017.69 1017.71 1017.54 1017.53 1017.71 1017.87 1018.00 1018.05 1018.01 1017.74 1017.89 1017.48 1016.98 1016.58 1016.01 1016.26 1016.17 1016.10 1015.97 1015.56 1015.10 1014.92 1014.27
1011.06 1011.40 1011.07 1010.44 1011.24 1010.80 1011.25 1011.53 1012.15 1012.60 1012.86 1013.58 1014.27 1015.05 1015.70 1016.52 1016.79 1016.92 1017.30 1017.40 1017.66 1017.72 1017.56 1017.46 1017.60 1017.76 1018.03 1018.06 1018.39 1018.25 1017.94 1017.44 1017.35 1016.94 1016.40 1015.99 1015.94 1015.77 1015.50 1015.38 1015.13 1014.89 1014.51 1014.32
1011.32 1011.31 1010.77 1010.75 1010.19 1009.93 1010.85 1012.06 1012.62 1012.84 1013.08 1013.81 1014.64 1015.42 1016.01 1016.71 1016.76 1016.42 1017.26 1017.56 1017.65 1017.54 1017.66 1017.72 1017.81 1017.94 1018.16 1018.38 1018.15 1018.07 1017.69 1017.64 1017.12 1016.92 1016.01 1016.12 1015.87 1015.58 1015.45 1015.35 1015.20 1014.92 1014.55 1014.16
1011.34 1011.73 1011.55 1010.68 1010.87 1010.26 1011.48 1012.72 1013.36 1013.81 1013.72 1014.42 1015.54 1015.96 1016.49 1016.88 1016.18 1015.91 1017.31 1017.54 1017.68 1017.97 1018.23 1018.36 1018.44 1018.22 1018.35 1018.41 1018.33 1018.49 1018.12 1017.27 1017.36 1017.08 1016.41 1016.15 1015.74 1015.23 1015.34 1015.41 1015.26 1014.89 1014.57 1014.25
1010.54 1011.26 1010.55 1010.43 1010.52 1010.93 1012.30 1013.30 1013.95 1014.32 1015.37 1015.86 1016.25 1016.51 1016.95 1017.18 1017.51 1017.74 1017.64 1017.80 1018.23 1018.61 1018.79 1018.95 1018.79 1018.71 1018.77 1018.88 1018.98 1018.91 1018.15 1018.11 1017.71 1017.12 1016.78 1016.44 1015.74 1015.31 1014.69 1014.82 1014.88 1014.70 1014.48 1014.11
1010.35 1010.40 1009.98 1010.10 1010.77 1011.75 1013.45 1013.88 1014.38 1015.49 1016.09 1016.36 1016.76 1016.93 1017.25 1017.59 1017.84 1017.78 1018.00 1018.35 1018.70 1018.96 1019.02 1019.09 1019.06 1019.04 1019.15 1019.58 1019.68 1019.53 1019.05 1018.93 1018.00 1017.38 1016.70 1016.47 1016.13 1015.39 1014.70 1014.32 1014.27 1014.21 1014.34 1014.12
1010.81 1011.46 1011.86 1012.12 1012.47 1013.82 1014.02 1014.66 1015.55 1016.03 1016.32 1016.66 1016.89 1017.28 1017.73 1017.86 1017.93 1018.22 1018.52 1018.75 1019.09 1019.26 1019.34 1019.41 1019.30 1019.26 1019.39 1019.56 1019.47 1019.21 1019.15 1018.99 1018.32 1017.55 1016.69 1016.13 1016.03 1015.73 1014.79 1014.38 1014.17 1014.04 1014.18 1014.22
1011.07 1012.05 1012.14 1012.55 1013.55 1014.07 1014.76 1015.47 1015.99 1016.30 1016.44 1016.85 1017.16 1017.50 1017.81 1018.15 1018.43 1018.64 1018.88 1019.17 1019.39 1019.56 1019.52 1019.48 1019.44 1019.58 1019.84 1019.65 1019.65 1019.96 1019.83 1019.07 1018.52 1017.98 1017.24 1016.55 1015.66 1015.66 1015.11 1014.48 1014.27 1013.95 1013.89 1014.09
1011.49 1012.25 1012.10 1012.48 1013.52 1014.41 1014.95 1015.45 1015.84 1016.40 1016.80 1017.02 1017.09 1017.58 1018.21 1018.62 1018.89 1019.04 1019.22 1019.58 1019.85 1019.82 1019.61 1019.64 1019.83 1019.98 1020.08 1019.92 1020.44 1020.20 1019.79 1019.33 1018.56 1018.00 1017.20 1016.61 1016.20 1015.65 1015.05 1014.70 1014.71 1014.39 1014.43 1014.80
1011.54 1012.03 1012.39 1012.44 1013.52 1014.00 1014.45 1015.44 1015.99 1016.47 1016.73 1017.10 1017.47 1017.85 1018.37 1018.79 1019.13 1019.39 1019.62 1019.99 1020.16 1020.03 1019.91 1019.78 1020.00 1020.29 1020.20 1020.52 1020.56 1020.43 1019.85 1019.47 1018.92 1018.35 1017.40 1017.02 1016.46 1015.99 1015.42 1014.63 1014.63 1014.78 1014.94 1015.22
Wind_Speed
14 12 8 27 10 10 11 11 8 11 6 11 5 9 8 6 6 6 5 5 6 2 12 14 12 12 6 5 6 6 5 9 6 7 7 8 8 6 5 3 2 5 7 8
12 10 1 8 7 9 12 12 13 5 4 5 8 10 6 6 5 2 4 7 8 9 3 9 7 8 8 11 11 8 9 13 8 7 3 5 6 6 6 5 6 6 8 8
12 9 3 6 11 9 14 3 13 16 6 12 8 12 9 7 5 3 1 4 7 11 10 13 11 10 12 12 13 12 14 11 9 7 5 5 7 7 2 5 5 5 8 7
10 7 6 13 13 10 16 4 10 13 8 6 12 9 10 12 8 4 2 3 6 5 5 3 5 10 11 14 15 16 11 10 8 8 7 3 7 7 4 6 7 6 8 8
12 7 8 14 9 9 17 11 13 15 18 10 14 10 10 3 10 5 3 2 7 4 9 5 4 11 6 2 9 11 15 14 12 9 8 6 7 5 2 6 10 10 5 8
16 4 5 12 5 6 6 12 15 13 8 14 6 10 12 6 4 8 9 7 7 9 6 6 12 17 14 13 18 19 11 6 8 10 8 7 7 8 8 8 9 6 5 5
14 10 4 7 10 8 8 14 13 9 6 8 10 8 9 7 11 9 4 8 8 9 5 7 5 2 3 6 6 8 8 7 9 7 7 7 7 7 8 8 5 7 4 3
17 13 13 5 6 12 15 10 10 17 13 11 13 2 9 14 12 7 3 3 8 10 11 11 12 12 13 15 15 13 8 5 7 5 3 9 10 8 6 2 6 5 3 1
15 3 6 1 4 6 11 9 10 11 18 15 8 6 10 9 9 3 2 4 6 7 12 14 16 12 13 12 12 11 9 9 9 9 11 10 8 8 8 8 4 5 7 5
5 12 5 9 5 10 8 11 10 8 9 11 8 7 8 7 6 4 2 4 11 15 11 8 7 6 5 10 10 6 11 10 18 11 5 6 2 5 9 7 7 7 9 7
7 3 3 6 3 10 8 7 3 4 8 9 12 10 5 7 4 5 10 10 8 9 8 10 10 12 12 13 14 13 14 12 6 9 8 8 7 10 5 2 12 7 5 9
6 6 10 5 5 4 3 7 8 8 2 9 6 7 6 5 8 11 12 7 5 8 11 12 11 10 9 11 11 12 12 14 15 6 2 11 9 10 10 7 11 11 8 9
5 2 9 13 11 5 6 3 5 6 7 10 8 7 6 8 9 6 5 8 10 8 8 11 10 11 11 11 11 12 13 13 14 11 10 9 10 11 9 6 6 8 12 8
2 4 8 11 9 5 3 1 2 5 8 11 9 6 10 6 2 2 6 8 8 7 8 9 10 13 13 12 13 13 13 14 13 10 13 13 13 11 8 4 8 13 13 11
4 6 6 4 4 5 3 4 5 8 7 7 12 9 11 6 8 4 6 7 8 9 9 10 10 11 12 13 13 14 12 13 16 17 9 12 13 12 9 6 11 13 13 7
1 2 6 4 2 5 6 3 3 3 6 8 7 3 5 3 5 7 6 7 9 10 11 13 11 12 11 12 12 12 13 12 7 13 16 8 8 12 8 7 14 11 12 5
3 1 6 6 1 6 10 9 5 4 5 5 9 8 5 6 7 6 6 7 10 11 12 13 13 11 11 12 11 10 13 10 13 8 13 11 11 9 6 12 13 10 11 7
3 4 4 4 2 9 7 4 4 8 7 5 4 1 6 5 5 6 5 8 10 13 14 13 12 12 11 14 11 10 12 13 11 11 7 14 12 8 8 7 9 9 9 7
5 7 5 6 9 8 13 3 1 5 8 2 5 1 3 5 9 8 4 8 11 13 13 14 13 14 12 10 14 11 13 12 12 13 12 12 10 10 6 7 7 9 9 7
6 8 9 6 10 12 9 5 4 4 8 10 2 3 3 5 10 9 12 12 14 15 14 14 16 14 11 12 13 12 13 13 14 15 14 11 15 9 4 6 10 10 9 8
7 7 10 9 11 6 8 6 3 7 7 4 3 2 1 6 7 9 11 13 13 12 13 13 13 12 13 12 10 13 14 14 13 15 14 15 12 14 6 6 7 8 11 8
9 8 9 6 7 4 6 5 6 6 1 1 1 0 3 5 8 10 11 12 12 13 12 12 12 11 11 12 11 14 14 12 16 14 15 12 15 12 12 8 8 4 5 7
3 6 8 6 7 5 2 5 5 2 2 2 1 3 5 7 9 10 11 11 10 11 11 11 11 11 9 10 9 10 13 14 17 18 17 12 12 13 13 11 7 4 3 3
6 4 5 5 7 4 5 6 4 1 2 2 1 3 6 8 10 10 9 9 9 10 9 10 11 12 12 11 14 13 14 14 12 13 12 16 11 8 11 10 7 6 5 2
6 2 4 5 5 5 5 4 4 5 2 4 2 4 4 6 8 8 8 8 8 8 9 9 10 10 11 13 11 12 12 13 15 13 13 10 7 11 8 9 5 6 3 4
3 7 5 6 6 4 6 7 4 3 1 3 5 6 9 7 7 7 7 7 7 8 10 10 10 10 11 11 11 11 10 12 12 12 10 8 9 8 12 5 6 2 5 5
Wind_Direction
204 270 141 257 18 347 314 315 305 86 155 275 30 140 169 194 236 247 250 236 249 249 207 214 219 220 212 183 179 209 249 263 254 291 312 347 342 321 302 344 1 308 291 291
257 251 75 7 339 311 290 292 102 223 133 250 153 156 191 176 218 251 326 186 211 216 183 183 182 217 224 219 226 226 233 240 239 260 317 334 299 316 314 354 310 302 288 298
274 296 91 309 291 263 312 239 335 332 130 245 276 189 158 160 216 213 117 300 194 240 210 173 202 196 209 226 219 217 230 234 238 269 267 246 293 239 303 259 246 266 291 279
278 12 321 294 283 318 306 341 316 297 271 315 197 291 144 165 165 117 107 157 233 216 250 263 261 169 203 206 214 215 233 229 224 228 252 274 289 301 309 291 288 289 287 291
273 302 299 303 5 337 298 333 311 299 289 265 219 288 126 129 95 110 140 269 38 31 15 282 317 341 243 26 230 213 220 200 205 216 228 278 309 304 294 302 269 258 251 264
264 33 314 326 321 320 335 274 269 261 277 249 73 204 125 128 107 89 54 34 15 20 5 111 244 20 35 351 6 355 357 208 189 213 215 235 269 283 300 305 300 299 232 222
254 270 88 295 263 206 257 271 291 285 181 293 196 255 78 106 79 74 61 29 39 354 33 349 30 111 169 241 118 173 245 257 188 187 222 258 262 248 274 260 344 314 289 225
283 192 236 148 294 317 301 317 305 298 307 342 165 97 103 82 83 73 48 353 25 6 24 3 28 352 351 351 350 355 21 216 259 193 211 248 229 257 253 164 254 287 337 340
305 72 155 263 314 309 329 273 359 305 266 248 71 61 146 135 112 134 58 27 15 356 24 14 9 9 351 344 328 329 331 319 298 247 244 220 238 241 278 286 276 264 260 263
344 295 139 110 273 222 286 336 291 242 285 308 189 158 58 150 128 111 196 350 23 26 17 11 1 355 325 336 331 7 346 354 337 309 176 247 27 343 265 248 247 277 296 289
343 250 162 215 204 348 301 278 306 299 286 309 297 98 56 85 85 7 45 30 13 348 338 316 344 351 356 347 347 349 338 326 273 226 254 246 270 259 288 328 281 282 245 260
51 314 288 4 57 309 313 338 297 295 62 307 302 82 78 68 66 30 359 59 333 320 348 345 352 345 355 345 346 344 342 332 330 354 45 288 264 259 265 251 260 269 258 261
15 280 283 216 173 193 264 39 299 271 278 267 309 104 140 93 66 35 357 328 326 3 355 330 341 345 340 340 341 348 338 336 339 355 329 296 271 262 266 274 280 277 284 266
301 288 279 309 11 351 255 253 314 287 284 347 28 103 114 96 55 351 303 326 338 332 354 343 342 350 345 346 349 336 339 341 327 336 337 321 298 272 255 268 295 275 269 259
345 278 283 359 331 326 357 306 323 330 344 303 359 334 80 62 338 334 341 334 329 334 345 340 344 342 344 352 340 338 353 344 337 327 339 336 311 277 260 265 275 264 250 257
169 272 282 227 242 284 280 256 292 251 321 290 300 312 15 350 281 349 328 326 320 340 341 331 335 330 340 342 338 339 332 334 328 321 326 344 319 296 264 249 268 252 256 259
216 69 258 257 72 296 253 212 234 310 258 301 316 40 315 325 6 330 321 333 343 341 321 325 327 334 339 333 323 326 329 335 319 330 325 331 338 300 259 251 258 264 262 238
225 261 303 309 273 256 91 76 360 315 317 316 260 316 2 337 309 307 345 352 337 321 325 325 330 339 340 346 1 332 326 327 326 317 337 337 349 320 285 283 277 287 273 259
247 264 298 271 263 267 158 148 228 323 307 216 276 327 338 327 290 224 45 344 319 332 335 337 336 336 357 335 330 323 326 320 333 323 345 335 344 329 311 307 303 306 289 272
214 249 268 288 295 290 84 104 68 334 261 75 129 306 335 326 284 47 360 338 342 349 344 344 334 332 345 336 359 337 323 330 351 333 338 336 327 328 298 266 285 289 304 294
206 250 254 256 270 98 84 120 110 251 65 99 335 2 300 302 347 325 324 345 350 349 338 343 341 336 344 14 355 332 332 358 330 334 333 333 328 326 316 313 263 269 270 282
296 301 296 241 258 247 120 154 275 71 123 320 161 165 304 330 318 323 346 343 349 343 345 343 339 353 342 33 12 337 340 334 320 325 318 333 332 326 322 343 326 276 277 276
283 353 331 346 25 114 112 60 88 93 148 159 263 27 330 315 335 339 343 344 351 346 345 347 343 346 4 349 319 328 358 355 338 333 332 323 327 331 320 330 343 338 211 293
160 170 270 309 125 146 124 117 132 193 139 120 281 299 332 344 337 342 339 353 350 352 343 351 350 346 358 339 14 3 347 330 331 327 317 333 330 321 324 326 331 334 52 357
48 211 350 250 172 143 174 180 170 177 184 250 284 40 338 341 338 342 343 357 353 343 343 351 357 352 334 16 354 348 323 344 335 334 326 330 327 315 314 320 353 344 22 18
72 17 301 23 102 266 116 176 165 218 254 17 350 352 355 348 341 346 350 358 348 340 343 352 353 356 359 359 341 330 345 349 343 331 337 350 324 336 319 328 325 13 85 160